Richmond, VA

6:17 AM EDT on July 22, 2017 (GMT -0400)
Richmond International

Weather History for KRIC - April, 2013

Change the Weather History Date:

Saturday, April 20, 2013

  Actual Average Record
Temperature  
Mean Temperature 56 °F 60 °F  
Max Temperature 65 °F 72 °F 95 °F (1985)
Min Temperature 47 °F 47 °F 29 °F (1926)
Degree Days  
Heating Degree Days 9 7  
Month to date heating degree days 131 184  
Since 1 July heating degree days 3523 3636  
Cooling Degree Days 0 1  
Month to date cooling degree days 65 19  
Year to date cooling degree days 66 25  
Growing Degree Days 7 (Base 50)    
Moisture  
Dew Point 41 °F    
Average Humidity 58    
Maximum Humidity 89    
Minimum Humidity 27    
Precipitation  
Precipitation 0.17 in 0.10 in 3.35 in (2008)
Month to date precipitation 1.83 2.20  
Year to date precipitation 15.33 12.04  
Snow  
Snow 0.00 in 0.00 in 0.00 in (2002)
Month to date snowfall T 0.1  
Since 1 July snowfall 8.6 10.3  
Snow Depth 0.00 in    
Sea Level Pressure  
Sea Level Pressure 30.03 in    
Wind  
Wind Speed 8 mph (NW)    
Max Wind Speed 16 mph    
Max Gust Speed 21 mph    
Visibility 10 miles    
Events Rain    
T = Trace of Precipitation, MM = Missing Value Source: NWS Daily Summary

Daily Weather History Graph

Daily Weather History Graph

Search for Another Location

Airport or City:

Trip Planner

Search our weather history database for the weather conditions in past years. The results will help you decide how hot, cold, wet, or windy it might be!

Date:

Astronomy

Apr. 20, 2013 Rise Set
Actual Time 6:27 AM EDT 7:49 PM EDT
Civil Twilight 6:00 AM EDT 8:16 PM EDT
Nautical Twilight 5:27 AM EDT 8:49 PM EDT
Astronomical Twilight 4:53 AM EDT 9:24 PM EDT
Moon 2:37 PM EDT (4/20) 3:09 AM EDT (4/20)
Length of Visible Light 14h 16m
Length of Day
13h 22m
Waxing Gibbous, 71% of the Moon is Illuminated
Apr 20
Waxing Gibbous
Apr 25
Full
May 2
Last Quarter
May 9
New
May 18
First Quarter

Hourly Weather History & Observations

Time (EDT) Temp. Dew Point Humidity Pressure Visibility Wind Dir Wind Speed Gust Speed Precip Events Conditions
12:54 AM 64.9 °F 63.0 °F 93% 29.77 in 10.0 mi South 11.5 mph - 0.02 in   Overcast
1:20 AM 64.4 °F 62.6 °F 94% 29.77 in 2.5 mi West 6.9 mph - 0.06 in Rain Rain
1:27 AM 64.4 °F 62.6 °F 94% 29.78 in 3.0 mi West 9.2 mph - 0.08 in Rain Rain
1:54 AM 62.1 °F 57.9 °F 86% 29.81 in 10.0 mi NW 11.5 mph - 0.12 in   Overcast
2:44 AM 57.2 °F 53.6 °F 88% 29.82 in 7.0 mi WNW 11.5 mph - 0.04 in Rain Light Rain
2:54 AM 57.9 °F 55.0 °F 90% 29.84 in 10.0 mi North 11.5 mph - 0.04 in Rain Light Rain
3:06 AM 55.4 °F 53.6 °F 94% 29.84 in 10.0 mi NNE 13.8 mph - 0.01 in   Overcast
3:36 AM 53.6 °F 51.8 °F 94% 29.87 in 10.0 mi North 8.1 mph - 0.01 in   Overcast
3:54 AM 53.1 °F 51.1 °F 93% 29.90 in 10.0 mi NNE 6.9 mph - 0.01 in   Overcast
3:56 AM 53.6 °F 51.8 °F 94% 29.88 in 10.0 mi NNE 8.1 mph - N/A   Overcast
4:54 AM 53.1 °F 50.0 °F 89% 29.94 in 10.0 mi NNW 5.8 mph - N/A   Overcast
5:54 AM 53.1 °F 46.0 °F 77% 29.96 in 10.0 mi NW 10.4 mph - N/A   Overcast
6:54 AM 51.1 °F 39.0 °F 63% 30.01 in 10.0 mi NNW 6.9 mph - N/A   Mostly Cloudy
7:54 AM 52.0 °F 37.0 °F 57% 30.04 in 10.0 mi NW 6.9 mph - N/A   Mostly Cloudy
8:54 AM 52.0 °F 34.0 °F 50% 30.07 in 10.0 mi NW 11.5 mph - N/A   Mostly Cloudy
9:54 AM 52.0 °F 30.0 °F 43% 30.10 in 10.0 mi NW 15.0 mph - N/A   Mostly Cloudy
10:54 AM 55.0 °F 30.0 °F 38% 30.13 in 10.0 mi WNW 9.2 mph 17.3 mph N/A   Mostly Cloudy
11:54 AM 57.9 °F 28.9 °F 33% 30.13 in 10.0 mi NNW 9.2 mph - N/A   Mostly Cloudy
12:54 PM 59.0 °F 27.0 °F 29% 30.12 in 10.0 mi NNW 11.5 mph - N/A   Mostly Cloudy
1:54 PM 61.0 °F 28.9 °F 30% 30.12 in 10.0 mi NNW 8.1 mph 17.3 mph N/A   Mostly Cloudy
2:54 PM 63.0 °F 30.9 °F 30% 30.11 in 10.0 mi West 8.1 mph - N/A   Mostly Cloudy
3:54 PM 63.0 °F 28.9 °F 28% 30.12 in 10.0 mi West 8.1 mph - N/A   Mostly Cloudy
4:54 PM 63.0 °F 28.0 °F 27% 30.12 in 10.0 mi West 10.4 mph - N/A   Scattered Clouds
5:54 PM 63.0 °F 28.0 °F 27% 30.14 in 10.0 mi West 9.2 mph - N/A   Scattered Clouds
6:54 PM 63.0 °F 28.9 °F 28% 30.16 in 10.0 mi Variable 3.5 mph - N/A   Mostly Cloudy
7:54 PM 60.1 °F 30.9 °F 33% 30.19 in 10.0 mi NNE 3.5 mph - N/A   Mostly Cloudy
8:54 PM 55.0 °F 35.1 °F 47% 30.23 in 10.0 mi Calm Calm - N/A   Scattered Clouds
9:54 PM 51.1 °F 39.9 °F 66% 30.27 in 10.0 mi Calm Calm - N/A   Scattered Clouds
10:54 PM 50.0 °F 37.0 °F 61% 30.28 in 10.0 mi NNE 6.9 mph - N/A   Partly Cloudy
11:54 PM 48.9 °F 39.0 °F 69% 30.31 in 10.0 mi NE 4.6 mph - N/A   Clear